[[[{"header":{"parameterUnit":"kt","parameterCategory":2,"dx":1,"dy":1,"la1":30.253999710083008,"la2":30.299108505249023,"lo1":-89.0895004272461,"lo2":-89.04439544677734,"nx":28,"ny":28,"refTime":"2022-10-01T21:00:00:Z","depth":0,"parameterNumber":1,"parameterNumberName":"U-component_of_WINDS"},"data":[2.7469,2.7504,2.7517,2.7563,2.7583,2.7617,2.7634,2.7657,2.7679,2.7723,2.775,2.7768,2.7797,2.7834,2.7865,2.7873,2.7885,2.7888,2.7896,2.787,2.7867,2.7865,2.7857,2.7891,2.7891,2.7921,2.7921,2.7921,2.7452,2.7472,2.75,2.7536,2.756,2.7566,2.7596,2.7616,2.7647,2.7674,2.7701,2.7741,2.7774,2.7802,2.7837,2.7855,2.7859,2.7863,2.7861,2.7866,2.7839,2.783,2.7859,2.7859,2.7859,2.7859,2.7859,2.7859,2.7424,2.7444,2.7473,2.7503,2.7525,2.7549,2.7571,2.7592,2.762,2.7656,2.7667,2.7702,2.7732,2.778,2.78,2.7829,2.7827,2.7835,2.7837,2.7839,2.7839,2.7794,2.7835,2.7835,2.7835,2.7835,2.7835,0,2.7407,2.7417,2.7443,2.7475,2.7498,2.7523,2.7549,2.7563,2.7588,2.761,2.7643,2.7665,2.7708,2.7742,2.7777,2.7796,2.7803,2.7806,2.7812,2.7806,2.7797,2.7802,2.7757,2.7804,2.7804,2.7803,2.7803,2.7803,2.7379,2.74,2.7436,2.7454,2.747,2.7498,2.7518,2.7538,2.7558,2.7593,2.761,2.7643,2.7671,2.7723,2.7747,2.778,2.7783,2.78,2.7788,2.7783,2.7783,2.7781,2.7784,2.7801,2.7801,2.7802,2.7802,0,2.7362,2.7382,2.7419,2.7453,2.7462,2.7484,2.7513,2.7534,2.7551,2.7582,2.7591,2.7618,2.7651,2.7672,2.7714,2.7724,2.7763,2.7766,2.7753,2.7754,2.7771,2.7769,2.7822,2.783,2.7795,2.7796,2.7796,0,2.7345,2.7372,2.7401,2.7421,2.7453,2.7471,2.7502,2.752,2.7544,2.7569,2.7581,2.7604,2.7627,2.7654,2.7669,2.7705,2.7713,2.7722,2.7726,2.7721,2.7719,2.7731,2.7728,2.7733,2.7733,2.7732,2.7732,0,2.7316,2.7362,2.7396,2.7409,2.7447,2.7463,2.7479,2.7507,2.7525,2.7553,2.7565,2.7597,2.7614,2.7639,2.7657,2.7648,2.7701,2.7692,2.771,2.771,2.7719,2.7718,2.7761,2.7732,2.7732,2.7732,2.7731,0,2.7305,2.7331,2.7376,2.7407,2.7419,2.7441,2.7472,2.7495,2.7523,2.7534,2.7556,2.7565,2.7597,2.7587,2.7632,2.7616,2.7632,2.7644,2.7646,2.7649,2.7637,2.7658,2.7697,2.7702,2.7654,2.7654,2.7653,0,2.7265,2.7315,2.733,2.7373,2.7398,2.7408,2.7434,2.7457,2.7473,2.7498,2.7516,2.7544,2.7541,2.7552,2.7572,2.7591,2.7613,2.7589,2.7626,2.7627,2.7617,2.7654,2.7654,2.7686,2.7645,2.7646,2.7646,0,2.7237,2.728,2.7286,2.7303,2.7336,2.7357,2.7386,2.7417,2.7433,2.7458,2.7483,2.7523,2.7523,2.7541,2.7552,2.7571,2.7599,2.7568,2.7568,2.7572,2.7642,2.7642,2.7648,2.7602,2.7603,2.7604,2.764,0,2.7215,2.7242,2.726,2.7294,2.7313,2.734,2.736,2.7378,2.7386,2.7401,2.7437,2.7462,2.7493,2.7505,2.7512,2.7549,2.7546,2.7545,2.7535,2.756,2.7572,2.7577,2.7516,2.7516,2.7515,2.7515,0,0,2.7172,2.721,2.7224,2.7252,2.7269,2.7277,2.7304,2.7322,2.7358,2.737,2.7365,2.7424,2.7444,2.7486,2.7496,2.7508,2.7517,2.7507,2.7548,2.7552,2.7555,2.7568,2.7573,2.7515,2.7515,2.7515,2.7515,0,2.7167,2.7186,2.7211,2.723,2.7258,2.7272,2.7279,2.7308,2.7318,2.7354,2.736,2.7385,2.743,2.745,2.7467,2.7503,2.7506,2.7512,2.7524,2.7546,2.755,2.7553,2.7567,2.7571,2.7515,2.7515,2.7515,0,2.7142,2.7163,2.7177,2.7215,2.7233,2.7259,2.7255,2.7281,2.7301,2.7308,2.7343,2.7359,2.7387,2.7424,2.7441,2.7437,2.7495,2.748,2.7481,2.7483,2.7506,2.751,2.7514,2.7462,2.7461,2.7461,0,0,2.7135,2.716,2.7187,2.7215,2.7227,2.7247,2.7262,2.727,2.7294,2.7304,2.7324,2.7348,2.7375,2.7392,2.7418,2.7456,2.7464,2.7473,2.7475,2.7477,2.748,2.7503,2.7507,2.746,2.746,2.746,0,0,2.7132,2.7165,2.7167,2.7202,2.7225,2.7254,2.7271,2.7275,2.73,2.7298,2.7314,2.7321,2.7356,2.7371,2.7356,2.7415,2.7406,2.741,2.7404,2.7407,2.741,2.7405,2.7354,0,0,0,0,0,2.7136,2.7161,2.7163,2.7171,2.7219,2.7253,2.7259,2.7272,2.7265,2.7279,2.7296,2.7298,2.7366,2.7353,2.7362,2.7378,2.7447,2.7449,2.7451,2.7452,2.7456,2.7458,0,0,0,0,0,0,2.7139,2.715,2.7162,2.7192,2.7203,2.7252,2.7243,2.7248,2.7264,2.7264,2.7294,2.7299,2.7311,2.7349,2.7357,2.7373,2.7351,2.7448,2.745,2.7452,2.7453,2.7456,2.7459,0,0,0,0,0,2.7142,2.7151,2.7223,2.7192,2.7201,2.7224,2.7242,2.7246,2.7259,2.7285,2.7289,2.7267,2.7311,2.7318,2.7354,2.7369,2.7346,2.7349,2.7449,2.7451,2.7452,2.7455,0,0,0,0,0,0,2.7144,2.7154,2.7225,2.7228,2.7182,2.7222,2.7228,2.7244,2.7279,2.7284,2.7258,2.7258,2.7311,2.7317,2.7323,2.7367,2.7342,2.7344,2.7346,2.745,2.7452,2.7453,0,0,0,0,0,0,2.715,2.7157,2.7227,2.7214,2.7217,2.7219,2.7225,2.7257,2.728,2.7251,2.7251,2.7257,2.7303,2.7316,2.7321,2.737,2.7338,2.7341,2.7343,2.7344,2.7451,2.7452,0,0,0,0,0,0,2.7153,2.7159,2.7214,2.7215,2.7217,2.7256,2.7248,2.7296,2.7268,2.7249,2.7266,2.7265,2.7302,2.7307,2.7319,2.7367,2.7369,2.7338,2.734,2.7342,2.7342,0,0,0,0,0,0,0,2.7156,2.7111,2.7205,2.7216,2.7217,2.726,2.726,2.7261,2.7268,2.7267,2.7266,2.7266,2.7323,2.7326,2.7329,2.7364,0,0,2.7338,2.7339,0,0,0,0,0,0,0,0,2.7109,2.7111,2.7205,2.7205,2.7206,2.726,2.726,2.7261,2.7268,2.7267,2.7267,2.7266,2.7324,2.7326,2.7328,0,0,0,0,0,0,0,0,0,0,0,0,0,0,0,2.7205,2.7205,0,2.726,2.726,2.7261,2.7268,2.7267,2.7267,2.7266,2.7324,2.7326,2.7328,0,0,0,0,0,0,0,0,0,0,0,0,0,0,0,0,0,0,0,0,0,0,0,0,0,0,0,0,0,0,0,0,0,0,0,0,0,0,0,0,0,0,0,0,0,0,0,0,0,0,0,0,0,0,0,0,0,0,0,0,0,0,0,0,0,0,0,0,0]}],[{"header":{"parameterUnit":"kt","parameterCategory":2,"dx":1,"dy":1,"la1":30.253999710083008,"la2":30.299108505249023,"lo1":-89.0895004272461,"lo2":-89.04439544677734,"nx":28,"ny":28,"refTime":"2022-10-01T21:00:00:Z","depth":0,"parameterNumber":2,"parameterNumberName":"V-component_of_WINDS"},"data":[-6.9983,-7.0009,-7.0055,-7.0104,-7.0153,-7.0194,-7.0222,-7.0263,-7.0306,-7.0357,-7.0393,-7.0438,-7.0495,-7.0546,-7.0585,-7.0603,-7.0616,-7.0595,-7.062,-7.0678,-7.0689,-7.0699,-7.0698,-7.0598,-7.0597,-7.0554,-7.0554,-7.0553,-7.003,-7.008,-7.0119,-7.0187,-7.022,-7.027,-7.0326,-7.0349,-7.0382,-7.0434,-7.0471,-7.0517,-7.0558,-7.0622,-7.0667,-7.0677,-7.07,-7.0686,-7.0686,-7.0694,-7.0758,-7.0757,-7.0667,-7.0667,-7.0667,-7.0667,-7.0667,-7.0667,-7.0128,-7.0141,-7.0209,-7.0251,-7.0296,-7.034,-7.0358,-7.0414,-7.0449,-7.0504,-7.0546,-7.0582,-7.0639,-7.0711,-7.0744,-7.0772,-7.0795,-7.0791,-7.079,-7.0788,-7.0782,-7.0845,-7.0781,-7.0781,-7.0781,-7.0782,-7.0782,0,-7.0214,-7.0252,-7.029,-7.0343,-7.0375,-7.0418,-7.0465,-7.0477,-7.0564,-7.0588,-7.0627,-7.0656,-7.0711,-7.0749,-7.0798,-7.0833,-7.0881,-7.0889,-7.0887,-7.0869,-7.0849,-7.0862,-7.0967,-7.089,-7.0891,-7.0892,-7.0892,-7.0893,-7.0317,-7.0325,-7.0415,-7.0436,-7.0473,-7.0503,-7.053,-7.0607,-7.0632,-7.0697,-7.0702,-7.0742,-7.0778,-7.0827,-7.0885,-7.0924,-7.0947,-7.0914,-7.0952,-7.0936,-7.0949,-7.0948,-7.095,-7.0904,-7.0903,-7.0902,-7.0901,0,-7.0372,-7.0444,-7.0468,-7.0555,-7.0577,-7.0579,-7.0652,-7.0665,-7.0715,-7.0738,-7.0748,-7.0824,-7.0858,-7.0921,-7.0969,-7.1001,-7.1005,-7.1026,-7.0989,-7.0997,-7.0975,-7.0977,-7.089,-7.0884,-7.0987,-7.0986,-7.0985,0,-7.0489,-7.0493,-7.06,-7.061,-7.0619,-7.0696,-7.0701,-7.0745,-7.0795,-7.0814,-7.0881,-7.0896,-7.0975,-7.0999,-7.1045,-7.1059,-7.1067,-7.1092,-7.1105,-7.1087,-7.1084,-7.1098,-7.1104,-7.1129,-7.113,-7.113,-7.113,0,-7.0567,-7.0627,-7.0645,-7.0669,-7.0759,-7.0764,-7.08,-7.0856,-7.0879,-7.092,-7.0936,-7.0975,-7.0996,-7.1025,-7.1085,-7.1109,-7.1102,-7.1147,-7.1128,-7.1126,-7.1122,-7.1121,-7.103,-7.1131,-7.1131,-7.1131,-7.1131,0,-7.0671,-7.0715,-7.0727,-7.0804,-7.0816,-7.0824,-7.0872,-7.0894,-7.0947,-7.0978,-7.1009,-7.106,-7.1075,-7.1117,-7.114,-7.1155,-7.1172,-7.1197,-7.1197,-7.1201,-7.1246,-7.1187,-7.1093,-7.1086,-7.1208,-7.1208,-7.1209,0,-7.0744,-7.0774,-7.0841,-7.0848,-7.0871,-7.0948,-7.0959,-7.1003,-7.1046,-7.1069,-7.1115,-7.1139,-7.1182,-7.1198,-7.1201,-7.1248,-7.1228,-7.1252,-7.1282,-7.1283,-7.127,-7.1184,-7.1154,-7.1107,-7.1218,-7.1217,-7.1216,0,-7.0808,-7.0917,-7.0913,-7.0946,-7.1018,-7.1035,-7.1046,-7.1088,-7.1101,-7.114,-7.1152,-7.1185,-7.1221,-7.1244,-7.1287,-7.1287,-7.1243,-7.1323,-7.1325,-7.1308,-7.1226,-7.12,-7.1191,-7.1272,-7.1271,-7.1271,-7.1223,0,-7.0955,-7.0977,-7.0969,-7.1033,-7.1057,-7.1063,-7.1133,-7.1148,-7.1191,-7.1235,-7.1249,-7.1296,-7.1334,-7.1339,-7.1377,-7.1355,-7.1368,-7.1404,-7.1447,-7.1389,-7.1375,-7.1369,-7.1463,-7.1465,-7.1466,-7.1467,0,0,-7.1006,-7.1039,-7.1109,-7.1123,-7.1148,-7.1225,-7.1226,-7.1257,-7.1316,-7.133,-7.1356,-7.1408,-7.1443,-7.1453,-7.144,-7.1453,-7.1456,-7.1471,-7.1416,-7.141,-7.1404,-7.1388,-7.1381,-7.147,-7.147,-7.1471,-7.1471,0,-7.1075,-7.1116,-7.1116,-7.1154,-7.1211,-7.1258,-7.1258,-7.1325,-7.1353,-7.1367,-7.1426,-7.1442,-7.1477,-7.1509,-7.153,-7.1473,-7.1514,-7.1478,-7.1428,-7.1427,-7.1419,-7.1413,-7.1395,-7.1388,-7.1475,-7.1474,-7.1474,0,-7.1152,-7.1205,-7.1212,-7.127,-7.1306,-7.1324,-7.139,-7.1404,-7.1418,-7.1494,-7.1505,-7.1539,-7.1585,-7.1583,-7.1585,-7.1607,-7.1565,-7.1587,-7.158,-7.1581,-7.1584,-7.1574,-7.1566,-7.1678,-7.1679,-7.1679,0,0,-7.1201,-7.1221,-7.1298,-7.1289,-7.1308,-7.1377,-7.1391,-7.1435,-7.1477,-7.1493,-7.1537,-7.1574,-7.1596,-7.1608,-7.1632,-7.162,-7.1635,-7.161,-7.16,-7.1592,-7.1589,-7.1589,-7.158,-7.1681,-7.1681,-7.1681,0,0,-7.1223,-7.1314,-7.135,-7.1348,-7.1389,-7.1461,-7.1452,-7.1496,-7.1524,-7.153,-7.1599,-7.1611,-7.1611,-7.1639,-7.1656,-7.1648,-7.169,-7.1687,-7.1629,-7.1618,-7.1609,-7.1601,-7.1725,0,0,0,0,0,-7.1328,-7.1304,-7.1335,-7.1345,-7.1414,-7.1444,-7.1453,-7.1512,-7.1543,-7.1535,-7.1579,-7.1622,-7.1664,-7.168,-7.1687,-7.1667,-7.1704,-7.1699,-7.1696,-7.1619,-7.1606,-7.1596,0,0,0,0,0,0,-7.1332,-7.1344,-7.1336,-7.1406,-7.1422,-7.1446,-7.1511,-7.1526,-7.1545,-7.1554,-7.1612,-7.1624,-7.1671,-7.1681,-7.1686,-7.1666,-7.1723,-7.1702,-7.1698,-7.1695,-7.1615,-7.1604,-7.1596,0,0,0,0,0,-7.1336,-7.1346,-7.1442,-7.1407,-7.1421,-7.1494,-7.1512,-7.1525,-7.1541,-7.1607,-7.162,-7.1583,-7.1669,-7.1677,-7.1684,-7.1662,-7.172,-7.1722,-7.17,-7.1697,-7.1695,-7.161,0,0,0,0,0,0,-7.1339,-7.1357,-7.1446,-7.1452,-7.142,-7.1494,-7.1508,-7.1524,-7.1594,-7.1607,-7.1582,-7.1588,-7.1667,-7.1674,-7.168,-7.1658,-7.1717,-7.1719,-7.172,-7.1698,-7.1696,-7.1694,0,0,0,0,0,0,-7.1352,-7.1362,-7.1449,-7.1463,-7.1471,-7.1493,-7.1506,-7.1517,-7.1594,-7.1565,-7.1572,-7.1583,-7.1656,-7.1671,-7.1676,-7.1693,-7.1715,-7.1717,-7.1718,-7.1719,-7.1696,-7.1694,0,0,0,0,0,0,-7.1357,-7.1366,-7.1461,-7.1468,-7.1475,-7.1551,-7.1505,-7.157,-7.161,-7.156,-7.1615,-7.1617,-7.1652,-7.1659,-7.1673,-7.1687,-7.1691,-7.1715,-7.1717,-7.1717,-7.1718,0,0,0,0,0,0,0,-7.1362,-7.1292,-7.1409,-7.1472,-7.1479,-7.1511,-7.1513,-7.1514,-7.161,-7.1612,-7.1614,-7.1616,-7.1706,-7.1708,-7.1709,-7.1683,0,0,-7.1715,-7.1716,0,0,0,0,0,0,0,0,-7.129,-7.1292,-7.1409,-7.141,-7.1411,-7.1511,-7.1512,-7.1514,-7.1611,-7.1612,-7.1614,-7.1615,-7.1706,-7.1708,-7.1709,0,0,0,0,0,0,0,0,0,0,0,0,0,0,0,-7.1409,-7.141,0,-7.1511,-7.1512,-7.1514,-7.1611,-7.1612,-7.1614,-7.1615,-7.1707,-7.1708,-7.1709,0,0,0,0,0,0,0,0,0,0,0,0,0,0,0,0,0,0,0,0,0,0,0,0,0,0,0,0,0,0,0,0,0,0,0,0,0,0,0,0,0,0,0,0,0,0,0,0,0,0,0,0,0,0,0,0,0,0,0,0,0,0,0,0,0,0,0,0,0]}]]]